PDT,Max TemperatureF,Mean TemperatureF,Min TemperatureF,Max Dew PointF,MeanDew PointF,Min DewpointF,Max Humidity, Mean Humidity, Min Humidity, Max Sea Level PressureIn, Mean Sea Level PressureIn, Min Sea Level PressureIn, Max VisibilityMiles, Mean VisibilityMiles, Min VisibilityMiles, Max Wind SpeedMPH, Mean Wind SpeedMPH, Max Gust SpeedMPH,PrecipitationIn, CloudCover, Events, WindDirDegrees
2013-9-1,86,70,54,57,53,49,86,59,32,29.90,29.86,29.79,10,10,10,16,4,20,0.00,0,,225
2013-9-2,80,72,64,59,55,50,73,55,37,29.92,29.89,29.87,10,10,10,14,5,20,0.00,7,,228
2013-9-3,83,72,61,57,53,50,78,57,36,29.99,29.96,29.93,10,10,10,14,4,18,0.00,5,,276
2013-9-4,77,68,59,57,55,53,84,65,46,30.04,30.01,29.99,10,10,10,9,3,13,0.00,4,Rain,243
2013-9-5,71,66,61,63,59,56,100,83,66,30.05,30.01,29.98,10,7,1,21,3,29,1.45,8,Rain-Thunderstorm,211
2013-9-6,73,67,60,60,58,55,97,77,57,30.14,30.11,30.05,10,9,5,16,10,21,0.52,6,Rain,201
2013-9-7,81,67,53,60,57,53,100,73,45,30.10,30.03,29.94,10,7,1,12,3,15,0.00,4,,11
2013-9-8,87,72,56,61,58,53,100,66,31,30.06,30.01,29.96,10,10,10,18,5,23,0.00,1,,15
2013-9-9,84,71,57,62,60,57,100,74,47,30.03,29.97,29.89,10,10,4,13,5,16,0.00,1,,19
2013-9-10,92,77,62,63,61,60,93,65,36,29.91,29.84,29.74,10,10,7,13,6,17,0.00,1,,5
2013-9-11,96,78,59,63,59,56,90,59,28,29.94,29.86,29.79,10,10,10,14,3,16,0.00,0,,245
2013-9-12,85,71,57,61,58,55,93,69,44,30.00,29.95,29.89,10,10,10,8,3,10,0.00,2,,134
2013-9-13,78,67,55,63,59,54,93,76,58,29.97,29.91,29.82,10,10,10,9,3,14,0.00,3,,349
2013-9-14,78,69,60,63,60,59,97,75,52,29.84,29.79,29.70,10,8,2,9,4,13,0.01,5,,345
2013-9-15,69,65,60,59,58,55,97,83,68,29.91,29.79,29.73,10,10,5,14,5,17,0.00,8,Rain-Thunderstorm,200
2013-9-16,72,66,59,58,56,54,90,72,53,29.98,29.94,29.90,10,10,10,14,8,17,T,8,,201
2013-9-17,72,64,56,58,52,46,90,67,44,30.03,29.91,29.87,10,10,10,18,6,23,T,7,,325
2013-9-18,74,64,53,54,50,43,93,63,33,30.10,30.05,30.00,10,10,10,10,4,15,0.00,3,,138
2013-9-19,80,63,45,54,49,44,100,68,35,29.99,29.88,29.78,10,10,10,7,1,9,0.00,0,,96
2013-9-20,74,62,49,57,53,48,93,73,53,29.77,29.70,29.67,10,10,7,18,4,25,0.10,3,Rain,186
2013-9-21,67,61,55,57,55,51,100,79,58,29.80,29.72,29.69,10,8,0,14,5,17,0.05,7,Fog-Rain,193
2013-9-22,63,60,56,58,54,50,93,81,69,29.88,29.78,29.70,10,9,3,31,15,39,0.19,8,Rain,178
2013-9-23,64,60,56,58,55,53,93,86,78,30.00,29.97,29.88,10,8,1,17,10,22,0.35,8,Rain,190
2013-9-24,61,57,53,55,52,49,100,86,72,29.98,29.93,29.88,10,9,1,15,5,16,0.39,8,Rain,224
2013-9-25,63,57,50,50,47,44,96,74,52,30.05,29.95,29.87,10,10,10,12,3,13,0.01,7,Rain,262
2013-9-26,67,56,45,50,48,45,100,74,48,30.18,30.11,30.05,10,8,1,10,4,13,0.00,5,,142
2013-9-27,71,59,47,52,49,46,93,76,58,30.18,30.09,29.93,10,10,7,25,8,33,0.14,7,Rain,169
2013-9-28,,,,,,,,,,29.92,29.71,29.54,10,8,2,27,19,46,0.99,8,Rain,190
2013-9-29,69,66,64,54,52,51,63,60,57,29.70,29.68,29.66,10,7,2,28,19,47,1.25,7,Rain,184
2013-9-30,60,55,50,52,50,47,86,83,80,30.01,29.96,29.87,10,10,4,16,13,29,0.37,7,Rain,185